Find Starlink 1454

NORAD ID: 45671 Int'l Des: 2020-035 Owner: SPXS Country: US Constellation: starlink operational
LEOCIRCULAR

Live Position

Loading 3D Globe...

About Starlink 1454

Description loading...

Upcoming Passes

Passes for default location (London). Set your location on the main map for personalized predictions.

Altitude History

Loading altitude history...

Two-Line Element Set

1 45671U 20035Q 26127.29339937 .00097047 00000-0 10695-2 0 9996
2 45671 53.0440 128.6928 0004483 350.5011 9.5917 15.62347439328043
Epoch: May 7, 2026 • Age: 5 hours

Current Status

Altitude 379.2 km
Velocity 7.69 km/s
Sub-Earth Point 23.56°N, 104.82°E
Launch Date Jun 4, 2020
Age 5.9 years
Type internet

Technical Details

Classification Payload
Mass 260.00 kg
Dry Mass 248.00 kg
Total Mass 260.00 kg
Length 0.20 m
Diameter 2.80 m
Span 9.00 m
Shape Box + pan
Manufacturer SPXS
Bus Type Starlink
Phase Status In Orbit
Owner/State SPXS/US

Most Searched